Liberia, Costa Rica

8:49 PM CST on June 22, 2017 (GMT -0600)
Liberia

Weather History for 78774 - October, 2013

Change the Weather History Date:

Sunday, October 13, 2013

  Actual Average Record
Temperature  
Mean Temperature 80 °F -  
Max Temperature 89 °F 84 °F - ()
Min Temperature 72 °F 73 °F - ()
Cooling Degree Days 16    
Growing Degree Days 30 (Base 50)    
Moisture  
Dew Point 70 °F    
Average Humidity 66    
Maximum Humidity 88    
Minimum Humidity 44    
Precipitation  
Precipitation 0.00 in - - ()
Sea Level Pressure  
Sea Level Pressure 29.82 in    
Wind  
Wind Speed 7 mph ()    
Max Wind Speed 14 mph    
Max Gust Speed -    
Visibility 7.7 miles    
Events      
T = Trace of Precipitation, MM = Missing Value Source: Averaged Metar Reports

Daily Weather History Graph

Daily Weather History Graph

Search for Another Location

Airport or City:

Trip Planner

Search our weather history database for the weather conditions in past years. The results will help you decide how hot, cold, wet, or windy it might be!

Date:

Astronomy

Oct. 13, 2013 Rise Set
Actual Time 5:30 AM CST 5:25 PM CST
Civil Twilight 5:09 AM CST 5:46 PM CST
Nautical Twilight 4:44 AM CST 6:10 PM CST
Astronomical Twilight 4:20 AM CST 6:35 PM CST
Moon 1:24 PM CST (10/13) 12:37 AM CST (10/13)
Length of Visible Light 12h 37m
Length of Day
11h 54m
Waxing Gibbous, 70% of the Moon is Illuminated
Oct 13
Waxing Gibbous
Oct 18
Full
Oct 26
Last Quarter
Nov 3
New
Nov 9
First Quarter

Hourly Weather History & Observations

Time (CST) Temp. Heat Index Dew Point Humidity Pressure Visibility Wind Dir Wind Speed Gust Speed Precip Events Conditions
6:00 AM 74 °F - 71 °F 86% 29.84 in 12 mi SSE 5.8 mph - -   Scattered Clouds
6:00 AM 73.4 °F - 69.8 °F 88% 29.82 in 6.2 mi SSE 5.8 mph - N/A   Partly Cloudy
7:00 AM 77.0 °F - 71.6 °F 83% 29.86 in 6.2 mi South 6.9 mph - N/A   Partly Cloudy
8:00 AM 80.6 °F 85.4 °F 73.4 °F 79% 29.88 in 6.2 mi SSE 3.5 mph - N/A   Scattered Clouds
9:00 AM 85 °F - 72 °F 57% 29.89 in 12 mi East 6.9 mph - -   Scattered Clouds
9:00 AM 86.0 °F 91.8 °F 71.6 °F 62% 29.88 in 6.2 mi East 6.9 mph - N/A   Partly Cloudy
10:00 AM 86.0 °F 91.8 °F 71.6 °F 62% 29.87 in 6.2 mi ENE 13.8 mph - N/A   Scattered Clouds
11:00 AM 87.8 °F 92.6 °F 69.8 °F 55% 29.85 in 6.2 mi ENE 13.8 mph - N/A   Scattered Clouds
12:00 PM 88 °F - 69 °F 44% 29.83 in 12 mi East 9.2 mph - -   Overcast
12:00 PM 87.8 °F 91.4 °F 68.0 °F 52% 29.82 in 6.2 mi East 9.2 mph - N/A   Mostly Cloudy
1:00 PM 84.2 °F 88.4 °F 69.8 °F 62% 29.79 in 6.2 mi ENE 11.5 mph - N/A   Scattered Clouds
2:00 PM 86.0 °F 90.4 °F 69.8 °F 58% 29.77 in 6.2 mi East 10.4 mph - N/A   Scattered Clouds
3:00 PM 83 °F - 72 °F 61% 29.78 in 12 mi ESE 8.1 mph - -   Overcast
3:00 PM 84.2 °F 89.6 °F 71.6 °F 66% 29.76 in 6.2 mi ESE 8.1 mph - N/A   Mostly Cloudy
4:00 PM 82.4 °F 87.2 °F 71.6 °F 70% 29.76 in 6.2 mi NE 6.9 mph - N/A   Scattered Clouds
5:00 PM 84.2 °F 88.4 °F 69.8 °F 62% 29.77 in 6.2 mi East 4.6 mph - N/A   Scattered Clouds
6:00 PM 81 °F - 68 °F 56% 29.82 in 12 mi East 6.9 mph - -   Scattered Clouds
6:00 PM 80.6 °F 83.2 °F 68.0 °F 65% 29.81 in 6.2 mi East 6.9 mph - N/A   Scattered Clouds
7:00 PM 78.8 °F - 68.0 °F 69% 29.85 in 6.2 mi East 6.9 mph - N/A   Scattered Clouds
8:00 PM 77.0 °F - 68.0 °F 74% 29.85 in 6.2 mi SE 5.8 mph - N/A   Scattered Clouds